sat.trackr.live / text

‹ back to catalog

STARLINK-31129

NORAD 58624 · 2023-203G

PAYLOAD ACTIVE UNKNOWN

§ Identity

Operator
Country
US
Launch date
2023-12-23
Launch site
AFETR
Launch vehicle
Mass (kg)
RCS (m²)

Purposes: comms

External: N2YO · Heavens-Above · Gunter

§ Orbital elements

Epoch: 2026-09-20T02:22:30.317664Z

Period
94.26 min
Inclination
43.0023°
Eccentricity
0.0001036
Mean motion
15.27670948 rev/d
Perigee alt
482.1 km
Apogee alt
483.5 km
Semi-major
6,860.9 km
B*
6.5143e-4
RAAN
49.1825°
Arg perigee
298.5860°
Mean anomaly
61.4888°
Rev number
15,329

§ Raw data

STARLINK-311291 58624U 23203G   26263.09896201  .00017757  00000+0  65143-3 0  99972 58624  43.0023  49.1825 0001036 298.5860  61.4888 15.27670948153290

JSON: /api/v1/satellites/58624 · /tle

For live sub-satellite position, see the globe view (requires WebGL).

§ Visibility from observer

Set your observer location to see the next 7 days of passes ≥ 10°. The values pass through the URL so the page stays shareable.

No JS? Fill the form by hand. The geolocation button needs JavaScript.